Vorticity
7 11 14 17 16 14 10 7 5 4 4 4 6 7 9 10 10 9 9 9 10 10 11 13 14 15 15 16 16 16 16 17 15 14 12 12 10 10 9 9 10 11 12 13 12 12 11 10 8 8 8 10 14 18 21 23 21 19 18 16 17 17 18 19 20 21 22 22 22
6 10 14 17 17 15 11 7 5 4 3 4 6 7 8 10 10 9 9 10 10 10 11 12 14 15 16 16 17 17 16 16 15 14 12 11 10 10 9 9 10 12 12 13 12 12 11 10 8 7 8 10 14 18 21 23 22 19 17 16 16 16 17 18 19 20 21 22 22
6 9 13 17 18 16 13 8 6 4 3 3 5 7 8 10 10 10 9 9 9 10 11 13 14 16 16 15 16 18 18 17 15 13 12 11 10 10 9 9 10 11 13 13 13 12 11 10 8 7 8 9 14 18 21 23 22 20 18 16 15 15 16 17 18 19 20 21 22
5 8 12 16 18 17 13 8 6 4 3 3 4 6 8 10 10 10 9 8 9 11 12 13 14 16 16 15 16 17 18 17 16 14 12 11 10 10 9 9 10 11 13 13 13 12 11 10 8 7 8 10 14 18 21 23 22 21 19 16 15 15 16 16 16 17 18 20 21
5 8 12 16 18 17 14 9 6 4 3 2 4 5 7 9 10 10 9 10 11 11 12 13 14 15 16 16 16 16 16 17 16 14 12 11 10 10 9 9 10 11 12 13 13 13 11 10 8 8 8 10 14 18 21 23 22 21 19 17 16 15 15 16 16 17 17 18 19
4 7 10 15 18 18 15 10 7 4 3 2 4 5 7 8 10 10 11 11 10 10 11 12 14 15 16 16 16 17 17 17 16 14 12 11 10 10 9 9 10 11 12 13 14 13 12 10 8 8 8 10 14 18 22 23 23 21 18 17 16 16 15 16 16 16 17 17 18
4 6 9 14 17 18 16 12 7 4 2 2 4 5 6 8 10 11 11 10 9 10 11 13 14 15 16 16 16 16 17 17 16 14 13 11 10 10 9 9 10 11 13 13 13 13 12 10 8 7 8 11 15 19 22 24 23 21 19 17 16 15 15 16 16 17 18 18 18
4 6 9 13 16 18 17 13 8 5 3 3 4 5 6 8 10 10 10 10 10 11 11 13 15 15 16 15 15 16 17 17 16 15 13 11 10 10 9 9 10 12 13 13 13 13 12 11 9 8 8 11 15 19 22 24 23 22 20 17 16 15 15 16 17 18 19 19 20
3 5 8 12 16 18 17 14 9 5 4 3 4 5 6 8 9 10 10 11 10 10 11 13 14 15 15 15 15 16 16 18 17 15 13 11 10 9 9 9 10 12 13 14 14 13 12 11 9 8 8 11 15 19 22 24 24 22 20 17 16 15 15 16 17 19 20 21 21
3 5 7 11 15 18 18 15 10 6 4 3 3 4 6 8 9 10 11 10 9 10 12 14 14 14 15 15 15 16 17 18 17 15 13 11 10 9 9 9 10 11 13 14 14 13 12 11 9 8 9 12 15 18 22 24 24 22 20 18 16 15 15 16 18 20 21 22 22
4 5 7 10 14 17 17 15 11 7 4 3 3 4 5 7 9 10 10 9 10 11 12 12 13 14 15 15 15 16 16 17 17 15 13 11 10 10 9 9 10 11 13 13 13 13 13 12 10 9 9 12 16 18 21 23 24 22 20 18 16 16 15 16 18 19 20 20 21
4 5 7 10 13 16 17 16 12 8 5 3 3 4 5 7 8 9 10 10 11 11 11 12 13 14 15 16 15 16 16 17 17 16 13 11 10 10 9 9 10 11 13 13 13 13 13 12 10 9 10 12 16 19 21 23 23 22 20 18 17 16 15 16 17 18 19 20 20
4 5 6 9 13 16 17 16 13 9 6 4 3 4 5 6 8 9 10 11 11 10 10 12 13 14 14 15 15 16 16 17 17 16 14 12 10 10 9 9 10 11 13 13 13 13 13 12 10 10 10 12 16 19 21 23 23 22 20 18 17 16 15 15 16 16 18 19 20
4 4 6 8 12 15 17 16 14 10 6 4 3 4 4 5 7 9 11 11 11 10 10 11 13 14 15 14 15 16 16 16 16 16 14 12 11 10 9 9 10 11 13 13 13 13 12 12 10 10 10 13 16 19 22 23 23 22 21 19 18 16 15 14 14 16 17 18 19
3 4 6 8 12 15 16 17 14 11 7 4 4 3 4 5 7 9 10 12 11 10 10 10 13 14 15 15 16 16 16 16 16 16 14 13 12 10 9 8 9 11 13 14 14 14 13 12 10 10 10 13 16 20 22 23 23 22 21 20 18 16 14 13 14 15 16 18 18
3 4 5 8 11 14 16 17 14 12 8 5 4 3 4 5 6 8 10 11 10 10 10 11 12 13 14 16 16 16 15 16 16 16 15 13 12 11 10 9 9 10 12 14 14 14 13 12 10 10 10 13 17 20 22 23 22 22 21 21 19 16 14 13 14 15 16 17 18
3 3 5 8 11 13 16 16 15 12 9 6 4 4 4 4 6 8 10 11 10 10 10 11 12 13 14 15 16 16 15 15 16 16 15 13 12 11 10 9 9 10 12 14 14 14 13 12 10 10 10 13 17 20 23 23 22 21 21 20 18 15 13 13 14 15 16 16 18
3 3 5 7 10 13 15 16 15 13 10 6 4 4 4 4 6 7 9 10 10 10 10 10 12 14 14 14 15 15 16 15 16 16 16 14 12 11 10 9 9 10 12 14 14 14 13 12 10 10 11 13 18 22 24 24 22 20 20 20 17 15 14 14 14 15 15 16 17
2 3 4 6 10 12 14 16 15 13 10 7 4 3 3 4 6 7 8 10 11 10 10 9 11 14 15 15 14 14 15 16 16 16 16 14 12 11 10 9 9 9 11 13 14 14 13 12 11 10 11 13 18 23 26 24 21 20 20 20 18 16 15 15 15 15 16 16 17
2 3 4 6 9 12 14 15 15 14 11 8 5 4 4 4 6 7 8 9 10 10 10 10 11 13 14 15 14 14 15 16 16 17 17 15 12 11 10 9 8 9 10 13 14 14 13 12 11 11 12 13 18 23 26 24 21 20 21 21 20 18 16 16 15 15 16 16 17
1 2 4 6 8 11 13 15 15 14 12 8 6 4 4 4 6 7 8 8 8 9 10 10 11 12 13 14 14 14 15 15 16 17 17 15 13 11 10 9 8 8 10 12 14 14 14 12 11 11 12 13 18 23 26 23 20 21 23 23 22 19 17 16 16 16 16 16 17
-0 1 3 5 8 10 13 14 15 14 12 10 7 4 4 4 5 7 7 7 9 10 11 11 11 12 13 14 14 14 14 16 18 18 17 15 13 11 10 9 8 8 9 11 13 14 14 13 12 12 12 13 17 22 24 22 21 22 24 24 22 20 18 16 16 16 16 16 17
-1 -0 2 4 7 10 12 14 15 15 13 10 7 5 4 4 5 6 6 8 10 11 11 11 11 12 13 13 14 14 14 15 18 19 18 16 13 10 9 9 8 8 9 11 13 13 13 12 12 12 13 13 16 20 22 22 21 22 24 23 22 20 18 16 16 16 16 17 17
-2 -1 0 2 6 9 12 13 14 15 14 12 8 6 4 4 4 5 6 8 10 11 11 11 11 11 12 12 14 14 15 15 16 18 18 18 14 11 9 9 9 9 9 10 13 14 13 12 11 12 13 14 16 19 21 21 21 22 22 22 22 20 18 16 16 16 16 17 18
-2 -2 -1 1 4 8 11 13 14 15 14 12 9 6 4 4 4 5 6 7 9 10 11 10 10 10 11 12 14 15 16 16 16 16 16 17 15 13 10 9 9 9 9 10 13 14 13 12 11 12 13 13 16 19 21 22 21 21 21 22 22 20 17 16 16 16 17 18 19
-1 -2 -2 -0 4 7 10 13 14 14 14 12 10 7 5 4 4 5 6 7 9 10 11 10 10 10 11 11 12 14 16 17 16 16 16 16 15 13 11 10 9 9 9 10 12 14 13 12 12 12 13 12 15 19 22 21 20 20 21 23 22 19 17 16 16 16 17 18 20
1 -2 -2 -1 2 6 9 12 13 14 14 13 10 8 6 4 4 5 6 7 8 10 10 11 10 10 10 11 12 14 15 15 16 16 17 16 15 14 12 10 10 9 9 10 12 14 14 12 12 13 13 12 15 19 22 21 19 20 21 23 21 19 17 15 15 15 16 19 20
3 -0 -2 -2 1 5 8 10 13 14 14 13 11 8 6 4 4 5 6 7 7 9 10 12 11 10 9 11 14 14 14 13 14 16 16 17 16 14 12 10 9 9 9 10 12 13 14 13 13 13 13 11 14 18 22 21 19 19 20 22 21 19 18 16 15 16 17 19 21
5 2 -1 -2 0 3 7 10 12 13 14 13 11 9 6 5 4 5 5 6 7 10 11 11 9 9 10 13 13 13 13 14 14 14 15 17 17 16 13 10 10 9 9 9 12 13 13 13 14 14 13 11 14 18 21 22 19 18 19 21 21 20 18 16 16 16 18 19 20
6 4 1 -2 -0 2 6 10 12 13 13 13 11 9 7 5 4 5 5 6 8 10 10 8 9 10 12 12 12 12 14 14 14 14 15 16 17 16 14 11 10 9 9 9 11 12 13 13 14 14 14 10 13 18 21 22 19 17 18 20 21 21 19 17 17 17 18 20 20
8 6 3 -0 -0 2 5 8 10 12 13 13 12 10 8 6 5 5 5 6 7 8 8 9 11 12 12 11 12 12 13 12 13 14 15 16 17 16 14 11 10 10 9 9 10 12 13 13 15 15 13 10 13 17 21 22 19 17 17 19 21 22 20 18 18 18 19 19 19
9 8 5 1 0 1 4 7 10 12 13 13 12 10 8 7 6 5 4 5 5 6 8 11 12 11 10 11 12 13 13 12 14 14 15 16 16 16 14 12 11 10 10 9 10 12 13 13 16 15 13 10 13 17 20 22 20 17 16 18 21 22 21 19 18 18 19 18 16
9 9 7 3 1 1 3 6 9 11 13 13 12 10 9 7 5 4 4 5 6 8 9 10 10 11 11 11 12 13 13 14 14 14 14 16 16 15 14 13 11 10 10 9 10 11 13 13 16 15 12 11 13 16 19 22 20 18 16 17 20 22 22 21 20 19 18 16 12
8 9 8 5 2 1 2 5 8 11 12 13 12 11 9 7 6 5 5 5 6 8 8 9 10 11 11 11 12 12 12 13 14 14 14 15 15 15 15 14 12 11 10 10 10 11 13 13 17 14 12 13 13 15 17 21 21 19 16 16 18 21 23 22 21 19 16 13 8
8 10 9 6 3 1 2 4 7 10 12 13 12 11 10 8 6 6 5 4 5 6 7 9 10 10 11 12 13 13 12 12 13 14 14 14 15 15 15 14 12 11 10 10 9 10 12 14 16 14 12 14 13 14 16 20 22 20 17 15 16 20 22 24 22 20 16 11 7
8 10 10 7 4 2 2 4 6 9 11 12 12 11 10 8 7 6 5 4 4 6 7 7 9 10 12 12 13 14 14 12 12 13 14 14 15 15 15 15 13 11 10 10 9 10 12 14 15 14 13 15 14 14 16 20 22 21 18 14 15 17 21 24 23 21 17 12 7
8 10 10 9 5 3 2 3 6 8 11 12 12 11 10 8 7 6 5 4 5 6 6 7 9 11 12 12 12 13 13 13 12 12 13 15 16 16 15 14 14 12 11 10 9 10 11 14 14 14 14 15 14 14 16 19 22 22 20 16 14 15 18 22 23 22 18 14 10
7 10 11 11 7 4 2 3 5 8 10 11 12 11 10 9 8 6 6 5 5 5 6 7 9 11 12 11 11 11 12 13 13 12 13 15 17 16 14 14 14 13 11 10 9 9 10 13 14 14 15 15 14 14 15 17 21 22 21 18 14 14 16 19 21 22 20 16 13
6 9 12 12 9 6 3 3 5 7 9 10 11 11 10 10 8 7 6 5 6 5 5 6 9 10 10 10 10 10 12 13 13 13 13 14 16 16 15 14 14 13 12 10 10 9 10 11 13 15 16 16 14 13 14 16 20 22 23 20 16 13 13 15 18 20 20 18 15
5 8 11 13 10 7 4 3 4 6 8 10 10 11 11 10 8 7 6 5 5 5 6 7 8 9 10 10 10 10 11 12 13 13 14 14 15 16 16 15 14 14 13 11 10 9 9 10 12 14 16 16 14 13 13 15 18 21 23 23 18 14 12 12 15 18 19 19 17
4 7 11 13 12 8 5 4 4 6 7 10 11 11 10 10 8 7 6 6 5 5 6 6 7 8 9 10 10 10 11 12 12 13 13 13 15 16 17 16 15 14 13 11 10 9 9 9 11 14 16 16 14 13 12 13 16 20 23 25 22 17 13 10 12 14 17 18 18
Height
5672 5668 5663 5658 5653 5648 5644 5639 5634 5629 5624 5618 5613 5607 5602 5596 5590 5585 5579 5573 5568 5562 5555 5549 5542 5536 5529 5523 5517 5511 5505 5499 5493 5488 5482 5476 5470 5464 5458 5453 5447 5441 5436 5430 5424 5419 5413 5408 5402 5397 5392 5386 5381 5375 5370 5365 5360 5355 5351 5347 5343 5339 5336 5332 5329 5326 5323 5319 5317
5670 5665 5660 5656 5651 5646 5641 5637 5632 5627 5621 5616 5610 5605 5599 5594 5588 5583 5577 5571 5565 5559 5553 5547 5540 5533 5527 5521 5515 5509 5504 5498 5492 5486 5480 5474 5468 5463 5457 5451 5445 5440 5434 5428 5423 5417 5412 5406 5401 5396 5390 5385 5379 5374 5369 5363 5358 5354 5349 5345 5341 5338 5334 5331 5327 5324 5321 5318 5315
5668 5663 5658 5653 5649 5644 5639 5634 5629 5624 5619 5613 5608 5603 5597 5592 5586 5581 5575 5569 5563 5557 5551 5544 5538 5532 5526 5519 5513 5508 5502 5496 5490 5484 5479 5473 5467 5461 5455 5450 5444 5438 5433 5427 5421 5416 5410 5405 5400 5394 5389 5383 5378 5373 5368 5362 5357 5353 5348 5344 5340 5336 5332 5329 5326 5323 5319 5317 5314
5665 5661 5656 5651 5647 5642 5637 5632 5627 5622 5617 5611 5606 5600 5595 5590 5584 5578 5573 5567 5561 5555 5549 5543 5536 5530 5524 5518 5512 5506 5500 5494 5489 5483 5477 5472 5466 5460 5454 5448 5443 5437 5432 5426 5420 5415 5409 5404 5398 5393 5388 5382 5377 5371 5366 5361 5356 5352 5347 5343 5338 5335 5331 5328 5324 5321 5318 5315 5312
5663 5658 5654 5649 5644 5640 5635 5630 5625 5620 5614 5609 5604 5598 5593 5588 5582 5576 5570 5565 5559 5553 5547 5540 5534 5528 5522 5516 5510 5505 5499 5493 5487 5482 5476 5470 5465 5459 5453 5447 5442 5436 5431 5425 5419 5414 5408 5403 5397 5392 5387 5381 5376 5370 5365 5360 5355 5351 5346 5342 5338 5334 5330 5327 5323 5320 5317 5313 5311
5661 5656 5651 5647 5642 5637 5633 5628 5623 5618 5613 5607 5602 5596 5591 5585 5580 5574 5568 5563 5557 5551 5544 5538 5532 5526 5520 5514 5509 5503 5498 5492 5486 5480 5475 5469 5464 5458 5452 5447 5441 5435 5430 5424 5418 5413 5408 5402 5397 5391 5386 5380 5375 5369 5364 5359 5354 5350 5345 5341 5337 5333 5329 5326 5322 5319 5315 5313 5310
5659 5654 5649 5645 5640 5635 5630 5625 5621 5615 5610 5605 5600 5594 5589 5583 5578 5572 5566 5561 5555 5549 5543 5537 5531 5525 5519 5513 5508 5502 5496 5491 5485 5479 5473 5468 5463 5457 5452 5446 5440 5434 5429 5423 5418 5413 5407 5402 5396 5391 5385 5380 5374 5369 5363 5358 5353 5349 5345 5341 5337 5333 5329 5325 5321 5318 5315 5312 5309
5657 5653 5648 5643 5638 5633 5628 5623 5618 5613 5608 5603 5598 5593 5587 5582 5576 5570 5564 5558 5553 5547 5542 5535 5529 5523 5518 5512 5506 5501 5495 5489 5484 5478 5473 5467 5462 5456 5450 5445 5439 5434 5428 5423 5418 5412 5407 5401 5396 5391 5385 5379 5374 5368 5363 5358 5353 5349 5345 5340 5336 5332 5328 5324 5321 5317 5314 5311 5308
5655 5650 5646 5641 5636 5631 5626 5621 5617 5612 5606 5601 5596 5591 5585 5580 5574 5568 5563 5557 5551 5546 5540 5534 5528 5522 5516 5510 5505 5499 5494 5488 5483 5477 5472 5466 5461 5455 5450 5444 5439 5433 5428 5422 5417 5412 5406 5401 5395 5390 5384 5379 5373 5368 5363 5358 5353 5348 5344 5340 5336 5332 5328 5324 5320 5317 5314 5311 5308
5653 5648 5643 5639 5634 5629 5624 5619 5614 5609 5604 5599 5594 5589 5583 5578 5573 5567 5561 5556 5550 5544 5538 5532 5526 5520 5515 5509 5503 5498 5493 5487 5482 5476 5471 5465 5460 5454 5449 5444 5438 5433 5427 5422 5417 5411 5406 5401 5395 5390 5384 5378 5372 5367 5362 5357 5353 5348 5344 5340 5336 5332 5328 5324 5320 5317 5314 5311 5308
5651 5646 5642 5637 5632 5627 5622 5617 5612 5607 5602 5597 5592 5587 5582 5576 5571 5565 5559 5553 5548 5542 5536 5531 5525 5519 5513 5508 5503 5497 5491 5486 5480 5475 5469 5464 5458 5453 5448 5443 5437 5432 5427 5421 5416 5411 5406 5401 5395 5389 5383 5378 5372 5366 5361 5357 5352 5348 5344 5340 5336 5332 5328 5324 5321 5318 5314 5311 5307
5649 5644 5639 5635 5630 5625 5620 5615 5610 5605 5600 5595 5590 5585 5580 5574 5569 5563 5558 5552 5546 5540 5535 5529 5524 5518 5513 5507 5501 5496 5490 5484 5479 5474 5468 5463 5458 5452 5447 5442 5436 5431 5426 5421 5415 5410 5405 5400 5395 5389 5383 5377 5371 5366 5361 5356 5352 5348 5344 5340 5336 5332 5328 5324 5321 5318 5314 5310 5307
5647 5642 5638 5633 5628 5623 5618 5613 5608 5603 5598 5593 5588 5583 5578 5573 5567 5562 5556 5550 5545 5539 5533 5528 5522 5517 5511 5506 5500 5494 5489 5483 5478 5473 5468 5462 5457 5452 5446 5441 5436 5430 5425 5420 5415 5410 5405 5399 5394 5389 5383 5377 5371 5366 5361 5356 5352 5348 5344 5340 5336 5331 5328 5324 5321 5318 5314 5310 5306
5645 5641 5636 5631 5626 5622 5617 5612 5607 5602 5597 5592 5587 5582 5576 5571 5566 5560 5555 5549 5543 5538 5532 5527 5521 5515 5510 5504 5499 5493 5488 5483 5478 5472 5467 5461 5456 5451 5446 5441 5435 5430 5425 5419 5414 5409 5404 5399 5393 5388 5383 5377 5371 5366 5361 5356 5352 5348 5343 5339 5335 5331 5328 5324 5321 5317 5313 5309 5306
5643 5639 5634 5629 5625 5620 5615 5610 5605 5600 5595 5590 5585 5580 5575 5569 5564 5559 5553 5548 5542 5537 5531 5526 5520 5514 5508 5503 5498 5493 5487 5482 5477 5471 5466 5461 5455 5450 5445 5440 5435 5430 5424 5419 5413 5408 5403 5398 5393 5388 5382 5377 5371 5366 5361 5356 5351 5347 5343 5338 5334 5330 5327 5323 5320 5317 5313 5309 5306
5642 5637 5632 5628 5623 5618 5613 5608 5603 5598 5593 5588 5583 5578 5573 5568 5563 5558 5552 5547 5541 5535 5530 5524 5519 5513 5508 5502 5497 5492 5486 5481 5476 5471 5465 5460 5455 5450 5445 5440 5434 5429 5424 5418 5413 5407 5402 5397 5392 5387 5382 5376 5371 5365 5360 5356 5351 5346 5342 5338 5333 5330 5326 5323 5320 5316 5312 5309 5306
5640 5635 5631 5626 5621 5617 5612 5607 5602 5597 5592 5587 5582 5577 5572 5567 5562 5556 5551 5545 5540 5534 5528 5523 5518 5512 5507 5501 5496 5491 5486 5481 5475 5470 5465 5460 5455 5450 5444 5439 5434 5428 5423 5418 5412 5407 5402 5397 5392 5386 5381 5376 5370 5364 5359 5355 5350 5346 5342 5337 5333 5330 5326 5323 5319 5316 5312 5308 5306
5638 5634 5629 5624 5620 5615 5610 5605 5600 5595 5590 5586 5581 5576 5571 5566 5560 5555 5549 5544 5539 5533 5528 5522 5517 5511 5506 5501 5496 5490 5485 5480 5475 5469 5464 5459 5454 5449 5443 5438 5433 5428 5422 5417 5412 5407 5402 5397 5392 5386 5381 5375 5369 5364 5359 5354 5350 5346 5342 5338 5334 5330 5327 5323 5319 5315 5312 5308 5306
5637 5632 5628 5623 5618 5613 5608 5603 5598 5593 5589 5584 5579 5574 5569 5564 5559 5554 5548 5543 5538 5532 5527 5521 5516 5510 5505 5500 5495 5489 5484 5479 5474 5468 5463 5458 5453 5448 5442 5437 5432 5427 5422 5417 5412 5407 5402 5397 5392 5387 5381 5374 5368 5363 5359 5355 5351 5347 5343 5339 5335 5331 5327 5323 5318 5315 5312 5309 5306
5635 5631 5626 5621 5617 5612 5607 5602 5597 5592 5587 5583 5578 5573 5568 5563 5558 5553 5547 5542 5536 5531 5526 5520 5515 5510 5504 5499 5494 5488 5483 5478 5473 5468 5462 5457 5452 5447 5442 5437 5432 5427 5422 5417 5413 5408 5403 5398 5392 5386 5380 5374 5369 5365 5361 5358 5353 5349 5344 5340 5335 5331 5327 5322 5318 5315 5312 5309 5306
5634 5629 5624 5620 5615 5610 5605 5600 5595 5591 5586 5581 5577 5572 5567 5562 5557 5551 5546 5541 5535 5530 5524 5519 5514 5509 5504 5498 5493 5488 5482 5477 5472 5467 5462 5456 5451 5446 5442 5437 5432 5427 5422 5418 5413 5408 5403 5398 5392 5386 5380 5375 5370 5367 5364 5360 5356 5351 5345 5340 5335 5330 5326 5322 5318 5315 5313 5310 5307
5632 5628 5623 5618 5613 5609 5604 5599 5594 5589 5585 5580 5575 5570 5566 5560 5555 5550 5545 5539 5534 5529 5523 5518 5513 5508 5503 5498 5493 5487 5481 5476 5470 5465 5461 5456 5451 5446 5441 5436 5432 5427 5422 5418 5413 5408 5403 5398 5393 5387 5382 5377 5373 5369 5366 5362 5357 5351 5345 5339 5334 5330 5326 5322 5318 5316 5313 5311 5308
5631 5626 5622 5617 5612 5607 5603 5598 5593 5588 5583 5579 5574 5569 5564 5559 5554 5549 5544 5538 5533 5528 5523 5517 5512 5507 5502 5497 5492 5486 5481 5475 5469 5464 5460 5455 5450 5446 5441 5436 5432 5427 5422 5418 5413 5408 5403 5398 5393 5388 5383 5378 5374 5370 5366 5361 5355 5348 5343 5338 5334 5330 5326 5322 5319 5317 5314 5312 5308
5629 5625 5620 5615 5611 5606 5601 5597 5592 5587 5582 5578 5573 5568 5563 5558 5553 5548 5543 5537 5532 5527 5521 5516 5511 5506 5501 5496 5491 5485 5480 5475 5470 5464 5459 5455 5450 5445 5441 5436 5431 5426 5422 5417 5412 5407 5402 5398 5393 5388 5383 5378 5373 5369 5364 5359 5352 5347 5343 5339 5335 5331 5327 5324 5321 5318 5316 5313 5310
5628 5623 5619 5614 5610 5605 5600 5595 5591 5586 5581 5577 5572 5567 5562 5557 5552 5547 5542 5536 5531 5526 5520 5515 5510 5505 5500 5495 5489 5484 5479 5474 5469 5465 5460 5455 5450 5445 5440 5436 5431 5426 5421 5416 5411 5406 5401 5396 5391 5386 5381 5377 5373 5368 5363 5357 5353 5348 5344 5340 5336 5333 5329 5325 5322 5320 5317 5314 5311
5626 5622 5618 5613 5608 5604 5599 5594 5589 5585 5580 5575 5571 5566 5561 5556 5551 5546 5541 5535 5530 5525 5520 5515 5510 5505 5499 5494 5489 5484 5478 5473 5469 5464 5460 5455 5450 5445 5440 5435 5431 5426 5421 5416 5411 5406 5401 5396 5391 5385 5380 5376 5372 5367 5362 5358 5353 5349 5345 5341 5337 5333 5330 5327 5324 5322 5319 5316 5313
5624 5620 5616 5612 5607 5603 5598 5593 5588 5584 5579 5574 5570 5565 5560 5555 5550 5545 5540 5535 5529 5524 5519 5514 5509 5504 5499 5494 5488 5483 5478 5473 5468 5464 5459 5455 5450 5446 5440 5435 5431 5425 5421 5416 5411 5406 5401 5396 5391 5385 5381 5376 5373 5368 5363 5359 5355 5350 5345 5341 5338 5334 5332 5329 5326 5323 5320 5317 5314
5623 5619 5615 5611 5606 5601 5597 5592 5587 5583 5578 5573 5569 5564 5559 5554 5549 5544 5539 5534 5529 5524 5518 5513 5508 5503 5498 5493 5488 5483 5478 5473 5468 5463 5459 5454 5450 5445 5440 5435 5431 5426 5420 5416 5411 5406 5401 5396 5391 5386 5382 5378 5373 5369 5364 5360 5355 5350 5346 5342 5339 5336 5333 5330 5328 5324 5321 5318 5315
5621 5617 5613 5609 5605 5600 5596 5591 5586 5582 5577 5573 5568 5563 5558 5553 5549 5544 5539 5534 5528 5523 5518 5513 5508 5503 5498 5493 5488 5483 5478 5473 5468 5463 5458 5454 5449 5445 5440 5435 5431 5426 5421 5416 5411 5406 5401 5397 5392 5387 5382 5378 5374 5370 5365 5361 5356 5351 5347 5344 5340 5337 5334 5331 5328 5325 5322 5319 5317
5619 5615 5612 5608 5603 5599 5594 5590 5585 5581 5576 5572 5567 5562 5558 5553 5548 5543 5538 5533 5528 5523 5518 5513 5508 5503 5498 5493 5488 5483 5478 5473 5468 5463 5458 5454 5449 5445 5440 5435 5431 5426 5421 5416 5411 5406 5402 5397 5393 5388 5383 5379 5375 5371 5367 5361 5357 5353 5349 5346 5342 5339 5336 5333 5330 5327 5324 5321 5319
5617 5613 5610 5606 5602 5598 5593 5589 5584 5580 5575 5570 5566 5561 5557 5552 5547 5543 5538 5533 5528 5523 5517 5512 5508 5503 5498 5492 5487 5482 5478 5473 5468 5463 5458 5454 5449 5445 5440 5436 5431 5426 5421 5416 5411 5407 5402 5398 5393 5388 5384 5381 5377 5372 5367 5362 5358 5354 5351 5347 5343 5340 5337 5334 5331 5328 5326 5323 5322
5615 5612 5608 5605 5601 5597 5592 5588 5583 5578 5574 5569 5565 5560 5556 5551 5547 5542 5537 5532 5527 5522 5517 5512 5507 5502 5497 5492 5487 5482 5477 5473 5468 5463 5458 5453 5449 5445 5440 5436 5431 5427 5422 5417 5412 5407 5403 5398 5393 5389 5386 5382 5378 5373 5367 5363 5359 5356 5352 5348 5345 5342 5339 5336 5333 5330 5328 5325 5324
5613 5610 5607 5603 5599 5595 5591 5587 5582 5578 5573 5569 5564 5559 5555 5550 5545 5541 5536 5531 5527 5522 5517 5512 5507 5503 5498 5493 5487 5482 5477 5472 5468 5463 5458 5453 5449 5444 5440 5436 5432 5427 5422 5417 5412 5408 5403 5398 5394 5390 5387 5383 5378 5373 5368 5364 5361 5357 5353 5350 5346 5343 5340 5337 5334 5332 5329 5328 5326
5612 5608 5605 5602 5598 5594 5590 5585 5581 5577 5572 5568 5563 5559 5554 5549 5545 5540 5535 5531 5526 5521 5517 5512 5507 5503 5498 5493 5488 5483 5477 5472 5467 5463 5458 5453 5449 5444 5440 5436 5432 5427 5423 5418 5413 5408 5404 5399 5395 5391 5388 5384 5378 5374 5370 5366 5362 5359 5355 5351 5348 5345 5342 5339 5336 5334 5331 5329 5328
5610 5606 5603 5600 5596 5593 5588 5584 5580 5576 5571 5567 5562 5558 5553 5549 5544 5539 5535 5530 5525 5521 5516 5511 5506 5502 5497 5492 5487 5482 5477 5472 5468 5463 5458 5453 5449 5445 5441 5436 5432 5427 5423 5418 5414 5409 5405 5400 5396 5393 5390 5385 5380 5375 5372 5368 5364 5360 5357 5353 5350 5347 5343 5341 5338 5335 5333 5331 5329
5608 5604 5601 5598 5594 5591 5587 5583 5579 5574 5570 5566 5562 5557 5552 5548 5543 5538 5534 5529 5524 5520 5515 5511 5506 5501 5496 5492 5487 5482 5478 5473 5468 5463 5458 5454 5450 5445 5441 5437 5432 5428 5423 5419 5415 5410 5406 5402 5397 5394 5390 5386 5381 5377 5373 5369 5365 5362 5358 5355 5352 5348 5345 5343 5340 5337 5335 5333 5331
5607 5603 5599 5596 5593 5589 5586 5582 5578 5573 5569 5565 5561 5556 5552 5547 5543 5538 5533 5528 5524 5519 5514 5510 5505 5501 5496 5492 5487 5483 5478 5473 5468 5463 5459 5454 5450 5446 5441 5437 5433 5428 5424 5420 5415 5411 5407 5403 5399 5395 5392 5387 5382 5378 5375 5370 5367 5363 5360 5357 5353 5350 5347 5344 5342 5339 5337 5335 5333
5605 5601 5597 5594 5591 5588 5584 5580 5576 5572 5568 5564 5559 5555 5551 5546 5542 5537 5533 5528 5523 5519 5514 5509 5505 5500 5496 5491 5487 5483 5478 5473 5468 5464 5459 5455 5450 5446 5442 5437 5433 5428 5424 5420 5416 5412 5408 5404 5400 5396 5393 5388 5384 5380 5376 5372 5368 5365 5361 5358 5355 5352 5349 5346 5343 5341 5338 5336 5334
5603 5599 5595 5592 5589 5586 5583 5579 5575 5571 5567 5563 5558 5554 5550 5545 5541 5536 5532 5528 5523 5518 5514 5509 5505 5500 5496 5491 5487 5482 5478 5473 5468 5464 5459 5455 5451 5446 5442 5438 5433 5428 5424 5420 5416 5412 5408 5404 5400 5397 5394 5389 5385 5381 5378 5374 5370 5367 5363 5360 5356 5353 5350 5348 5345 5342 5340 5337 5335
5601 5598 5594 5590 5587 5584 5581 5578 5574 5570 5566 5562 5557 5553 5548 5544 5540 5536 5531 5527 5522 5518 5513 5509 5504 5500 5495 5491 5487 5482 5478 5473 5468 5463 5459 5455 5450 5446 5442 5437 5433 5428 5424 5420 5416 5412 5408 5405 5401 5398 5394 5390 5386 5382 5379 5375 5372 5368 5365 5361 5358 5355 5352 5349 5346 5343 5341 5338 5336
5600 5596 5592 5588 5585 5583 5579 5576 5572 5568 5564 5560 5556 5552 5548 5543 5539 5535 5531 5526 5522 5517 5513 5508 5504 5499 5495 5491 5487 5482 5478 5473 5468 5463 5459 5455 5450 5446 5442 5437 5433 5428 5424 5420 5417 5413 5409 5405 5401 5398 5394 5390 5386 5383 5380 5377 5373 5370 5366 5363 5359 5356 5353 5350 5348 5345 5342 5340 5338